Hourly Data Report for May 24, 2019

KUGAARUK CLIMATE
NUNAVUT
Current Station Operator: ECCC - MSC

68°32'15.060" N
89°47'47.020" W
15.80 m
2303094
71407
NBB

Download Data

Hourly Data (May 2019)
Hourly Data Report for May 24, 2019
TIME
LST
Temp Definition
°C
Dew Point Definition
°C
Rel Hum Definition
%
Precip. Amount Definition
mm

Wind Dir Definition
10's deg

Wind Spd Definition
km/h
Visibility Definition
km
Stn Press Definition
kPa
Hmdx Definition


Wind Chill Definition


Weather Definition


00:00 -4.0 -5.4 90 0.0 1 21   101.22   -10 LegendNANA
01:00 -4.1 -5.8 88 0.0 36 13   101.23   -9 LegendNANA
02:00 -3.7 -5.3 88 0.0 36 10   101.21   -8 LegendNANA
03:00 -4.2 -5.8 89 0.0 25 6   101.22   -7 LegendNANA
04:00 -4.0 -5.6 88 0.0 35 10   101.23   -8 LegendNANA
05:00
06:00
07:00 -3.8 -5.9 86 0.0 1 8   101.24   -7 LegendNANA
08:00 -3.8 -5.4 89 0.0 3 13   101.26   -9 LegendNANA
09:00 -3.1 -5.0 87 0.0 2 23   101.22   -10 LegendNANA
10:00 -2.6 -4.3 88 0.0 1 28   101.21   -10 LegendNANA
11:00 -2.2 -4.0 88 0.0 1 26   101.22   -9 LegendNANA
12:00 -1.8 -3.7 87 0.0 1 22   101.26   -8 LegendNANA
13:00 -1.5 -3.4 87 0.0 1 26   101.26   -8 LegendNANA
14:00 -1.2 -3.0 87 0.0 2 21   101.26   -7 LegendNANA
15:00 -1.3 -3.0 88 0.0 2 22   101.26   -7 LegendNANA
16:00 -1.4 -2.7 91 0.0 2 15   101.27   -6 LegendNANA
17:00 -1.3 -2.8 90 0.0 1 11   101.28   -5 LegendNANA
18:00 -1.2 -2.9 88 0.0 33 7   101.27   -4 LegendNANA
19:00 -1.7 -3.3 89 0.0 5 5   101.26   -4 LegendNANA
20:00 -1.9 -3.5 88 0.0 30 8   101.24   -5 LegendNANA
21:00 -2.2 -3.7 90 0.0 31 10   101.22   -6 LegendNANA
22:00 -2.8 -4.6 88 0.0 26 9   101.20   -6 LegendNANA
23:00 -3.8 -4.7 93 0.2 26 14   101.18   -9 LegendNANA

Notes on Data Quality.

Legend

  • E = Estimated
  • M = Missing
  • NA = Not Available*
  • [empty] = Indicates an unobserved value
Date modified: